Weather in Yushkovo

Russia / Mari El Republic     56°42′43″N   48°05′04″E
temp.,
°C
wind,
m/s
gust,
m/s
humid.,
%
clouds,
%
prec.,
mm/h
press.,
hPa
HPBL,
m
16 october, sat
sat1600:00+5wsw61296100 0.7 1016945
03:00+5wsw5118023 0.8 1017684
06:00+3sw410915 0.0 1018350
09:00+5ssw51279100 0.0 1018509
12:00+8sw6126565 0.0 1017762
15:00+8ssw61263100 0.0 1016788
18:00+8ssw61363100 0.0 1016726
21:00+8ssw6145990 0.0 1015756
17 october, sun
sun1700:00+7ssw6146298 0.0 1014585
03:00+5ssw5136677 0.0 1013514
06:00+6sw51269100 0.0 1013634
09:00+7sw5106913 0.0 1014604
12:00+10sw68515 0.0 10131291
15:00+10sw5952100 0.0 10131172
18:00+7ssw41161100 0.0 1013379
21:00+6sw41168100 0.0 1012353
18 october, mon
mon1800:00+5ssw3107799 0.0 1012249
03:00+4ssw398661 0.0 1011207
06:00+3ssw3989100 0.0 1011209
09:00+6sw4978100 0.0 1010337
12:00+9sw476051 0.0 1009905
15:00+9sw376298 0.1 1008743
18:00+7ssw4970100 0.3 1008417
21:00+6sw51170100 0.3 1007589
19 october, tue
tue1900:00+6w4878100 0.0 1007948
03:00+3nw3685100 0.1 1009381
06:00+2w2387100 0.0 101099
09:00+3wsw2376100 0.0 1011346
12:00+6wsw3463100 0.0 1010837
15:00+6w3461100 0.0 10101220
18:00+4nw3573100 0.0 1011592
21:00+3w137499 0.0 1011134
20 october, wed
wed2000:000wnw36905 0.0 1011131
03:00−1wnw369461 0.0 1012135
06:00−1wnw499499 0.0 1013320
09:00+2nw577998 0.1 1015750
12:00+2nw5765100 0.1 10161206
15:00+2nw475897 0.2 10171370
18:00−2nw37675 0.0 1019164
21:00−3wnw23765 0.0 102061